SL-16 DEB, 18550

Orbit data source: Space-Track

SL-16 DEB, 18550 is space debris in LEO originally from a launch on Wed, 18 Mar 1987 UTC launched from the Tyuratam Missile And Space Complex (TTMTR). Debris objects in space refer to the collection of defunct objects orbiting the Earth. Examples of debris include non-operational satellites, rocket bodies, and fragments generated from explosions, collisions, or faulty payload assembly.

Loading next visibility...
Identifier
18550, 1987-027F
Orbit
LEO
Country
Flag of CISCIS
Related business
Manufacturer
Yuzhnoe
Mission
Spacecraft
Bus & Motor
SEP MOTOR COVER, Unknown motor
Mass
~0 kg wet, ~1 kg dry
Launch date (UTC)
1987-03-18 (39 years ago)
Launch vehicle
Unknown
Launch site
Tyuratam Missile And Space Complex (TTMTR)
Object type
Payload
Rocket body
Debris
Shape & HBR
Unknown shape, 0.1 m
Radar Cross Section
Small (<0.1 m²)

Expand to show TLE details & history
Last TLE update: 7 hours ago

TLE from 7 hours ago
0 SL-16 DEB
1 18550U 87027F   25304.61266418  .00000198  00000-0  20772-3 0  9990
2 18550  71.0235 259.8695 0179668  46.1459 315.4331 13.79208342942463
Epoch: 2025-10-31T14:42Z
TLE epoch observation values (Epoch: 2025-10-31T14:42:14.185Z)
Latitude
-0.00004°
Longitude
-0.84421°
Altitude
876.219 km
Speed
7.461 km/s
True Right ascension
17h 19m 28s
True Declination
0° 00' 00"
Sunlit
Object was in daylight at epoch
Visualization orbit readout
Latitude
Unknown
Longitude
Unknown
Altitude
Unknown
Speed
Unknown
Apparent Right ascension
Unknown
Apparent Declination
Unknown
Sunlit
N/A
Visualization observer readout
Local Sidereal Time
17:05:21
Azimuth
Unknown
Elevation
Unknown
Doppler factor
Unknown
Orbital elements
Apogee altitude
1,096.579 km
Perigee altitude
832.726 km
Semi-major axis
7,342.79 km
Eccentricity
0.01797
Inclination
71.0235°
RAAN
259.8695°
Arg. of periapsis
46.1459°
True anomaly
313.96501°
Mean anomaly
315.4331°
Eccentric anomaly
314.70141°
Mean motion
3.44946 °/min
Orbital period
104.36 mins
BSTAR
0.00020772
Loading maneuver chart data...
Computing Atmospheric mass density...
Loading historical data...
Loading historical data...
Loading historical data...
Loading historical data...
Loading historical data...
Loading historical data...
Loading historical data...

Documentation

Showing up to 5 results
|